Lapse_Rate
2.6 3.4 5.0 5.2 5.3 5.7 5.3 5.3 5.4 5.4 5.5 5.6 5.6 5.6 5.6 5.6 5.7 5.7 5.8 6.2 6.3 6.4 6.6 6.4 6.3 6.2 6.1 6.1 5.9 5.8 5.7 5.7 5.5 5.1 5.0 5.1 5.4 5.8 5.9 5.7 5.5 5.4 6.2
1.8 3.9 5.0 5.2 5.3 5.5 5.3 5.3 5.3 5.2 5.5 5.7 5.9 5.9 5.8 5.8 5.7 5.9 6.1 6.3 6.5 6.3 6.3 6.4 6.3 6.1 6.1 6.0 5.8 5.9 5.8 5.9 5.5 5.0 5.0 5.0 5.2 5.9 6.5 6.2 6.1 6.0 6.4
2.3 4.3 5.1 5.2 4.9 5.3 5.3 5.3 5.2 5.4 5.9 5.8 5.9 6.0 6.0 5.8 5.7 5.9 6.1 6.0 6.2 6.1 6.0 6.1 6.0 6.0 5.9 5.9 6.0 6.0 5.9 5.5 5.2 5.1 5.0 4.9 5.0 5.9 6.7 6.6 6.5 6.8 6.9
2.8 4.0 4.7 5.2 5.2 5.2 5.5 5.4 5.5 5.6 5.6 5.6 5.5 5.7 5.8 5.6 5.5 5.7 5.7 5.4 5.9 5.9 5.7 5.8 5.6 5.6 5.6 5.7 5.9 5.9 5.8 5.3 5.0 4.7 4.6 4.9 5.2 6.5 6.8 6.9 7.1 6.9 6.7
3.3 3.7 4.4 5.3 5.5 5.5 5.7 5.2 5.5 5.5 5.4 5.2 5.1 5.3 5.4 5.3 5.2 5.1 5.0 5.0 5.2 5.4 5.5 5.5 5.6 5.6 5.6 5.6 5.8 5.8 5.3 5.3 4.6 4.7 4.6 5.2 5.2 6.4 6.8 7.2 6.9 6.9 6.8
3.0 3.6 4.7 5.3 5.4 6.0 5.5 5.2 5.0 5.1 5.1 5.0 4.9 4.7 4.8 4.7 4.5 4.3 4.2 4.3 4.4 4.7 4.7 4.9 4.9 4.8 4.8 5.1 5.4 5.2 5.1 4.8 4.3 4.3 4.7 5.5 5.9 6.9 7.2 7.3 7.2 6.8 6.7
4.2 4.2 5.8 5.6 5.7 5.7 5.3 4.8 5.0 4.9 4.8 4.8 4.6 4.4 4.3 4.0 3.9 3.8 3.9 4.0 4.1 4.2 4.3 4.5 4.4 4.6 4.7 4.8 4.8 4.7 4.5 3.9 3.5 3.9 4.7 5.6 6.5 7.1 7.3 7.0 6.9 6.9 6.7
4.9 4.6 5.5 5.5 5.7 5.5 4.7 4.7 4.8 4.7 4.7 4.4 4.2 3.8 4.0 3.8 3.7 3.6 3.7 3.8 4.0 4.0 4.1 4.3 4.5 4.6 4.8 4.6 4.6 4.5 4.0 3.6 3.4 3.7 4.6 5.5 7.0 7.3 7.1 7.0 7.0 7.0 7.0
4.5 4.5 4.6 5.5 5.4 4.8 4.2 4.5 4.5 4.4 4.3 3.9 3.6 3.6 3.6 3.6 3.6 3.6 3.7 3.9 4.0 4.1 4.2 4.3 4.7 5.0 4.9 4.7 4.4 4.0 3.6 3.4 3.6 4.1 5.1 5.8 7.2 7.4 7.2 7.0 6.9 6.9 6.8
4.1 3.5 3.4 4.3 3.6 3.4 3.7 4.0 4.1 3.8 3.4 3.2 3.2 3.1 2.7 2.7 3.0 3.0 2.6 3.8 4.1 4.2 4.5 4.7 4.9 4.6 4.6 4.8 4.3 3.8 3.4 3.4 3.7 4.2 4.8 6.1 7.2 7.4 7.0 6.6 6.8 7.1 7.2
3.5 3.6 3.1 3.3 2.5 2.5 2.8 3.4 3.2 2.8 2.5 2.5 2.5 2.4 1.9 1.6 1.8 2.1 2.8 3.7 4.2 4.3 4.5 4.8 4.6 4.3 3.6 4.7 4.3 3.6 3.2 3.1 3.4 3.6 4.4 6.3 6.9 7.2 6.6 6.8 6.8 6.8 7.0
3.1 3.0 3.0 2.4 1.3 1.9 2.3 1.5 1.0 0.7 0.7 0.9 1.3 1.4 1.4 1.4 1.7 1.8 2.0 2.5 3.0 3.2 3.3 3.7 4.0 3.6 3.1 2.9 3.1 3.0 2.8 2.8 2.8 3.1 4.3 6.1 6.4 6.8 7.0 6.6 6.7 6.9 6.5
3.0 2.6 2.2 2.1 1.1 1.2 0.4 -0.2 -0.5 -0.5 -0.3 -0.0 0.7 1.1 1.2 1.0 1.1 1.2 1.4 1.6 2.0 1.9 2.1 1.9 2.2 2.1 2.2 2.3 2.3 2.5 2.6 2.4 2.4 2.7 4.1 5.9 6.9 7.6 6.7 7.0 7.1 6.7 6.9
2.8 2.3 1.7 1.5 0.8 0.6 0.2 -0.8 -1.0 -1.0 -0.7 -0.8 -0.0 0.9 0.6 -0.2 -0.0 -0.1 -0.1 0.4 0.6 0.7 1.0 1.1 1.2 1.6 1.9 2.1 2.2 2.0 2.2 2.0 2.0 2.3 3.3 5.0 6.3 6.9 7.3 7.1 7.2 7.7 7.6
2.9 2.4 1.9 1.3 0.7 -0.1 -0.9 -1.3 -1.1 -1.0 -0.6 -0.4 -0.1 0.6 1.0 0.2 -0.6 0.2 -0.6 -0.1 0.2 0.6 0.4 0.4 0.7 1.0 1.4 1.8 1.8 1.9 1.9 1.7 1.9 2.0 2.6 4.3 5.5 6.2 6.5 6.5 6.5 7.4 8.1
2.8 2.3 1.8 1.7 0.7 -0.1 -1.4 -1.2 -1.2 -0.6 -0.3 -0.0 0.0 0.4 1.1 0.9 0.1 0.0 -0.7 -0.6 -0.1 0.2 0.4 0.7 0.5 0.5 0.3 1.0 0.6 1.0 1.3 1.8 2.2 2.5 3.0 3.7 4.7 5.1 5.7 5.8 6.0 6.2 6.6
2.8 2.5 2.2 1.6 1.0 -0.1 -0.7 -0.8 -0.8 -0.2 0.1 -0.2 -0.1 0.6 1.1 1.2 0.9 0.0 -0.8 -1.4 -0.6 0.2 0.4 0.4 0.3 0.3 -0.4 0.2 -0.4 0.3 1.0 1.6 2.5 2.5 2.9 3.3 3.5 3.9 4.8 5.3 5.5 5.7 5.8
2.3 2.6 2.5 2.9 1.0 -0.1 -0.7 -0.8 -0.5 -0.2 -0.2 -0.3 0.2 0.7 1.1 1.2 1.2 0.2 -0.8 -1.3 -0.5 -0.2 -0.1 -1.0 -1.5 -0.8 -1.0 -1.0 -0.8 -0.7 -0.2 1.0 1.8 2.2 2.7 2.9 3.1 3.2 3.6 4.5 4.9 5.0 5.2
2.8 3.4 2.4 2.0 0.9 -0.0 -0.5 -0.3 -0.3 -0.3 -0.5 -0.2 0.4 0.6 0.9 1.1 1.3 0.6 -0.5 -0.6 -0.4 -1.2 -1.3 -1.1 -2.7 -1.8 -1.5 -1.6 -0.8 -0.8 -0.8 0.0 0.8 2.2 2.2 2.7 2.9 3.0 3.1 3.3 3.5 3.7 4.0
3.5 3.9 2.3 2.4 0.6 0.1 -0.1 -0.6 -1.1 -1.3 -1.1 -0.2 0.1 0.6 1.0 1.1 1.1 0.5 -0.2 -0.5 -0.4 -1.7 -1.7 -2.2 -2.2 -3.0 -2.7 -3.1 -0.8 -0.7 -1.8 -0.9 0.2 0.5 1.0 2.3 2.4 2.6 2.7 2.7 2.7 2.9 3.1
3.4 3.8 2.5 2.1 0.4 0.7 0.5 -0.1 -0.5 -0.7 -0.9 -0.9 0.1 0.9 1.1 1.2 1.1 0.4 -0.4 -0.9 -1.0 -1.6 -1.5 -1.6 -2.3 -1.9 -2.3 -3.6 -1.9 -1.1 -1.3 -1.0 -0.2 0.3 0.5 0.7 1.3 2.0 2.2 2.3 2.3 2.2 2.6
3.0 3.5 3.0 2.8 1.5 1.1 1.0 -0.1 0.1 -0.4 -0.2 -0.1 0.2 0.7 1.1 1.2 1.1 0.7 -0.0 -1.5 -1.0 -1.1 -1.3 -2.0 -2.1 -1.4 -2.1 -3.4 -1.2 -2.0 -0.5 0.7 0.2 -0.5 -0.9 0.1 0.1 0.9 1.7 2.3 2.2 2.2 2.4
3.3 3.4 3.5 2.6 2.0 1.3 1.0 0.5 0.1 0.0 -0.0 -0.1 -0.3 -0.0 0.6 1.4 1.2 0.7 0.4 -0.7 -0.7 -0.7 -1.5 -2.0 -1.9 -1.2 -0.5 -1.8 -2.3 -0.1 1.2 1.8 -1.4 -0.5 -0.1 -0.7 -0.5 -0.2 0.8 1.6 2.3 2.7 2.7
3.5 3.6 3.3 2.5 1.7 1.5 0.8 1.0 1.2 0.6 0.6 0.5 0.3 -0.1 0.1 1.1 1.0 1.1 0.8 0.3 -0.2 -0.6 -0.9 -0.7 -1.2 -1.5 -0.8 -0.2 -0.7 -0.4 -0.9 0.6 2.0 1.6 0.5 -0.3 -0.7 1.1 0.5 0.7 1.2 2.0 2.5
4.0 3.5 3.1 2.9 1.5 1.3 0.6 1.4 1.6 1.7 1.3 0.2 -0.1 -0.0 0.1 0.4 1.1 1.3 1.1 0.7 0.1 -0.3 -0.7 -0.3 -0.6 -0.9 -1.0 -0.3 0.0 0.3 0.2 -0.2 0.0 1.9 1.9 0.1 -0.9 -0.5 -0.6 -0.4 0.2 0.5 1.5
3.8 3.3 3.3 3.0 1.9 2.1 0.5 0.7 2.0 2.0 1.1 0.4 -0.1 -0.0 0.2 0.2 0.2 1.3 1.2 0.9 0.6 0.2 0.1 -0.1 -0.7 -0.3 -0.6 -0.6 -0.5 -0.1 1.1 2.1 2.1 2.4 1.7 -0.1 -0.5 -1.9 -2.1 -2.1 -1.4 -0.0 1.7
Wind_Speed
6 14 22 21 18 20 17 15 14 13 11 11 11 9 8 8 7 7 6 7 7 7 8 8 9 9 9 9 9 8 7 9 10 9 8 7 7 7 5 5 6 6 7
11 17 22 22 20 19 17 15 14 12 11 10 9 8 7 7 6 8 8 7 6 7 6 7 8 8 7 8 9 10 8 7 7 7 6 6 6 4 2 4 5 6 6
15 18 20 21 21 18 17 16 14 11 12 12 11 10 9 9 9 9 8 7 7 7 6 7 8 8 8 8 7 9 10 10 8 6 7 7 7 3 3 3 4 6 7
16 18 18 21 20 19 17 17 16 14 13 11 10 9 10 10 9 6 7 7 8 9 9 9 9 9 8 8 8 9 10 8 9 8 7 7 6 2 3 6 7 7 7
12 15 18 21 20 21 20 18 16 14 12 11 10 9 8 8 7 6 6 6 7 7 7 7 7 7 7 8 8 9 8 9 8 7 5 5 5 5 7 7 8 9 9
7 12 20 21 21 19 18 17 16 14 12 11 10 9 8 8 7 6 6 6 6 6 6 6 6 6 7 7 7 7 8 8 8 8 7 8 6 8 9 9 10 10 10
9 10 18 21 22 22 18 16 14 13 12 10 10 9 7 7 6 6 6 6 6 5 5 5 6 6 7 8 8 7 7 7 9 9 8 7 7 8 8 8 8 8 8
11 9 15 21 20 20 18 15 14 13 11 10 10 9 8 7 7 6 6 6 5 5 6 5 5 6 7 8 8 7 7 8 9 10 10 8 7 7 8 7 8 9 9
8 9 10 14 19 17 16 15 13 12 11 10 10 9 9 7 6 6 6 5 5 5 5 5 5 5 6 7 9 11 12 11 11 10 9 8 7 7 7 7 7 7 8
6 8 9 12 14 14 14 14 13 12 11 11 10 10 11 9 8 7 7 6 6 6 6 6 6 8 6 7 10 11 11 12 12 11 11 7 5 5 6 5 5 5 8
5 7 10 10 12 14 14 14 13 13 12 11 9 9 8 8 9 8 7 8 6 7 5 6 8 8 9 10 11 11 11 11 11 11 13 10 4 4 5 7 10 12 11
7 7 9 9 9 11 10 13 13 11 9 9 9 8 7 6 6 8 10 10 10 10 11 10 9 9 11 10 10 10 10 9 10 10 12 12 7 13 15 15 13 12 12
8 6 9 9 11 10 9 11 10 10 10 9 9 8 7 6 7 8 8 8 8 9 9 10 11 11 10 9 9 8 8 8 8 8 10 11 11 10 12 11 12 11 9
9 8 9 8 7 9 11 8 10 8 8 8 9 8 8 7 7 7 7 7 7 7 7 7 8 9 9 8 7 7 6 7 7 6 8 10 9 10 10 10 9 5 7
10 8 9 9 7 8 7 8 8 7 7 8 8 7 8 7 5 5 7 7 6 6 6 5 6 6 6 5 6 6 4 5 5 5 5 9 10 10 11 10 9 8 8
10 11 8 8 6 10 5 7 6 9 9 8 8 8 8 8 8 6 6 5 5 5 5 4 5 4 4 3 4 4 3 2 2 4 4 7 10 10 10 9 9 8 8
10 10 10 9 7 7 7 7 8 9 9 8 8 9 8 8 8 7 5 4 4 5 5 4 5 5 4 3 3 3 3 4 1 2 2 4 6 8 8 8 8 8 8
9 12 10 8 7 7 7 7 8 10 9 8 8 8 8 9 8 8 5 3 6 6 4 3 2 3 3 3 2 3 3 3 2 1 1 2 4 5 6 7 8 8 9
13 12 11 10 8 8 7 7 8 9 8 8 8 8 8 9 8 8 6 4 6 7 4 2 3 3 3 3 4 3 3 2 3 2 2 3 4 5 6 7 7 8 9
13 11 13 9 8 8 6 4 5 4 5 7 6 6 8 8 8 8 6 6 6 4 3 3 3 4 3 2 3 3 3 2 2 1 2 4 5 5 6 6 7 8 9
11 12 13 12 8 8 5 4 3 4 2 2 5 7 8 8 7 8 6 7 7 4 3 2 1 4 4 4 2 3 2 2 1 1 2 3 5 5 7 8 8 9 10
15 13 11 13 11 7 6 3 3 3 2 2 5 6 7 7 7 7 5 5 6 3 4 4 4 2 2 4 2 2 4 4 3 3 3 3 4 6 7 10 10 11 13
14 13 13 13 12 7 7 5 4 4 3 2 2 2 3 7 6 8 7 8 5 3 3 3 3 5 2 3 6 3 3 2 3 3 3 3 5 3 6 9 10 14 15
15 14 13 13 12 8 8 6 6 3 3 3 3 3 3 6 6 7 7 7 6 4 3 2 2 3 2 3 2 3 4 2 1 4 3 3 3 4 5 7 11 15 16
13 13 11 12 11 8 8 6 4 4 2 2 3 6 4 4 6 6 6 6 5 4 3 3 3 4 2 2 2 2 3 3 2 2 4 4 4 3 4 5 11 13 14
11 11 10 12 10 9 8 8 7 6 5 4 4 4 3 3 3 4 6 5 5 4 3 2 3 3 3 3 1 2 1 1 1 0 2 3 4 4 3 4 5 9 11
Wind_Direction
175 171 166 162 159 151 148 145 140 135 131 126 122 119 115 109 99 89 76 94 88 85 83 81 74 66 59 53 49 41 50 47 46 41 31 25 27 28 46 45 38 25 38
141 166 165 161 161 150 150 147 143 141 139 139 134 127 126 122 103 95 87 75 87 68 68 72 69 68 59 52 46 44 45 44 40 30 12 9 6 351 17 29 16 4 359
147 158 165 161 152 153 151 147 147 148 130 118 113 105 100 103 99 90 81 69 56 67 69 67 68 66 59 51 47 50 48 51 40 25 16 14 348 315 7 23 1 356 4
148 156 159 158 154 154 153 144 134 127 123 121 115 109 101 95 88 78 65 58 63 66 70 66 57 49 44 43 40 43 49 38 28 24 17 2 1 355 24 11 9 5 5
147 151 156 158 157 146 140 137 138 134 129 124 116 108 101 95 96 96 85 71 65 62 58 52 49 44 39 34 31 33 34 30 27 15 11 1 21 23 40 33 32 30 25
133 148 159 154 147 145 139 142 141 137 135 128 120 111 108 102 94 89 83 77 71 66 58 45 46 44 38 35 35 37 37 36 42 35 53 52 67 64 63 52 38 30 29
142 149 149 149 145 140 138 139 142 136 134 128 121 113 111 105 97 89 85 83 78 73 63 54 52 50 48 46 44 40 44 55 54 50 50 57 73 76 62 49 37 28 21
156 141 146 144 138 128 135 145 139 134 131 127 125 120 117 108 103 98 94 88 83 77 70 65 60 58 55 50 38 39 58 80 59 50 47 48 74 66 57 45 39 26 26
133 118 124 126 120 130 135 139 135 132 130 129 127 123 118 109 100 98 91 87 81 74 70 64 58 53 58 59 56 77 76 69 61 44 35 26 49 47 25 21 29 31 43
125 128 105 106 108 114 126 127 128 130 131 131 126 117 103 85 89 88 72 79 77 76 72 74 64 59 66 90 92 82 71 65 59 43 26 4 15 8 9 25 42 58 60
137 144 122 109 112 122 125 125 119 117 116 124 126 123 112 97 92 82 63 59 68 67 73 81 70 70 72 96 95 80 71 61 56 41 22 9 7 34 63 71 65 65 61
152 146 134 131 124 130 121 125 118 115 115 124 124 121 119 121 97 85 71 63 60 66 65 68 70 73 85 92 85 77 74 67 54 39 19 24 59 87 80 70 62 62 60
158 151 139 137 138 137 129 130 121 120 116 115 124 120 111 115 104 89 75 61 57 51 52 66 75 76 86 95 89 84 79 69 55 38 23 20 30 62 70 67 60 54 53
165 157 146 137 141 138 135 133 133 124 123 115 124 126 119 107 98 92 82 64 60 58 58 75 75 81 79 83 97 91 84 80 63 48 35 35 40 44 48 44 29 31 28
168 163 159 146 149 141 132 137 131 125 124 124 120 122 133 118 105 94 84 73 60 66 68 90 89 83 74 74 76 87 83 83 69 58 44 42 48 50 52 47 33 19 7
167 166 156 151 147 141 140 145 139 132 128 123 118 120 123 127 120 108 87 76 64 67 75 99 95 80 68 69 67 62 56 57 75 72 53 32 43 45 46 43 34 23 15
177 158 164 154 150 144 144 137 137 134 128 120 118 118 123 126 119 115 106 89 68 58 80 100 71 68 58 44 51 37 37 29 123 91 52 24 26 33 31 29 24 19 11
163 167 159 150 150 140 139 137 133 132 128 123 120 116 115 119 121 115 108 96 91 79 68 67 37 54 48 34 356 348 348 7 34 82 357 337 357 0 3 7 9 7 3
169 168 153 142 149 139 128 127 126 127 122 124 121 116 118 123 123 116 110 96 91 77 59 21 51 59 37 356 327 326 332 334 353 7 352 339 337 335 341 345 352 349 344
169 177 144 147 140 130 117 105 94 99 104 116 119 123 122 124 123 112 100 87 78 73 47 40 74 50 63 347 314 327 311 311 322 335 319 313 316 314 319 324 329 331 331
171 159 149 144 145 139 132 121 108 131 131 102 121 129 128 125 122 113 106 88 73 73 58 21 74 58 20 348 5 354 352 350 309 292 322 301 303 312 314 312 312 312 314
167 166 155 151 153 153 145 127 133 144 143 129 130 123 128 128 127 113 108 89 78 92 65 49 44 67 34 9 84 79 6 339 9 22 354 338 311 327 327 326 320 315 312
166 169 161 154 154 147 130 112 86 85 77 94 115 126 128 132 121 113 110 98 94 84 82 77 61 65 61 15 45 115 34 343 326 335 3 18 9 2 339 335 322 317 315
175 173 158 154 147 149 143 128 151 145 152 176 154 142 134 127 122 118 112 111 104 105 88 83 81 81 90 39 14 45 68 111 54 336 340 336 350 333 322 321 315 317 317
171 167 152 153 140 148 146 137 144 132 119 131 125 127 127 119 121 127 124 124 116 98 104 99 75 76 72 95 65 22 50 56 81 129 284 312 329 296 298 295 306 306 318
169 148 150 148 142 153 146 143 154 156 149 139 134 134 134 122 119 142 127 125 113 113 108 106 97 93 96 98 99 91 108 108 274 80 289 295 271 292 280 287 281 298 312